Scottsbluff, NE

3:36 PM MST on November 20, 2019 (GMT -0700)
Heilig

Weather History for KBFF - September, 2019

Change the Weather History Date:

Sunday, September 29, 2019

  Actual Average Record
Temperature  
Mean Temperature 72 °F -  
Max Temperature 91 °F 72 °F 93 °F (1992)
Min Temperature 54 °F 40 °F 20 °F (1916)
Cooling Degree Days 8    
Growing Degree Days 22 (Base 50)    
Moisture  
Dew Point 52 °F    
Average Humidity 72    
Maximum Humidity 100    
Minimum Humidity 12    
Precipitation  
Precipitation 0.00 in - - ()
Sea Level Pressure  
Sea Level Pressure 29.59 in    
Wind  
Wind Speed 13 mph (SE)    
Max Wind Speed 18 mph    
Max Gust Speed 24 mph    
Visibility 7 miles    
Events      
Averages and records for this station are not official NWS values.
T = Trace of Precipitation, MM = Missing Value Source: NWS Daily Summary

Daily Weather History Graph

Daily Weather History Graph

Search for Another Location

Airport or City:

Astronomy

Sep. 29, 2019 Rise Set
Actual Time 6:49 AM MDT 6:39 PM MDT
Civil Twilight 6:21 AM MDT 7:07 PM MDT
Nautical Twilight 5:48 AM MDT 7:39 PM MDT
Astronomical Twilight 5:16 AM MDT 8:12 PM MDT
Moon 7:42 AM MDT (9/29) 7:40 PM MDT (9/29)
Length of Visible Light 12h 46m
Length of Day
11h 50m
New Moon, 1% of the Moon is Illuminated
Sep 29
New Moon
Oct 5
First Quarter
Oct 13
Full
Oct 21
Last Quarter
Oct 27
New

Hourly Weather History & Observations

Time (MDT) Temp. Dew Point Humidity Pressure Visibility Wind Dir Wind Speed Gust Speed Precip Events Conditions
12:14 AM 53.1 °F 52.0 °F 96% 29.80 in 3.0 mi ESE 13.8 mph - N/A   Overcast
12:53 AM 53.1 °F 52.0 °F 96% 29.70 in 4.0 mi ESE 18.4 mph - N/A   Overcast
1:51 AM 53.6 °F 53.6 °F 100% 29.75 in 6.0 mi ESE 15.0 mph 23.0 mph N/A   Overcast
1:53 AM 54.0 °F 53.1 °F 97% 29.68 in 6.0 mi ESE 16.1 mph - N/A   Overcast
2:53 AM 54.0 °F 54.0 °F 100% 29.65 in 4.0 mi ESE 17.3 mph - N/A   Overcast
3:53 AM 54.0 °F 54.0 °F 100% 29.64 in 3.0 mi East 12.7 mph - N/A   Overcast
4:10 AM 54.0 °F 54.0 °F 100% 29.71 in 2.5 mi ESE 15.0 mph - N/A   Overcast
4:33 AM 55.0 °F 54.0 °F 96% 29.70 in 1.8 mi East 15.0 mph - N/A   Overcast
4:53 AM 55.0 °F 55.0 °F 100% 29.62 in 1.5 mi East 13.8 mph - N/A   Overcast
5:01 AM 55.0 °F 55.0 °F 100% 29.68 in 1.5 mi East 13.8 mph - N/A   Overcast
5:13 AM 55.9 °F 55.0 °F 97% 29.69 in 2.0 mi ESE 13.8 mph - N/A   Overcast
5:35 AM 57.0 °F 55.9 °F 96% 29.69 in 4.0 mi ESE 12.7 mph - N/A   Overcast
5:44 AM 57.0 °F 55.9 °F 96% 29.68 in 4.0 mi ESE 13.8 mph - N/A   Overcast
5:53 AM 57.0 °F 57.0 °F 100% 29.61 in 4.0 mi ESE 12.7 mph - N/A   Overcast
6:28 AM 57.9 °F 57.0 °F 97% 29.68 in 7.0 mi ESE 10.4 mph - N/A   Overcast
6:45 AM 57.9 °F 57.0 °F 97% 29.68 in 7.0 mi ESE 10.4 mph - N/A   Overcast
6:53 AM 57.9 °F 57.0 °F 97% 29.61 in 7.0 mi ESE 12.7 mph - N/A   Overcast
7:16 AM 57.9 °F 57.9 °F 100% 29.67 in 6.0 mi ESE 12.7 mph - N/A   Scattered Clouds
7:43 AM 59.0 °F 57.9 °F 96% 29.67 in 4.0 mi SE 13.8 mph - N/A   Partly Cloudy
7:53 AM 60.1 °F 59.0 °F 96% 29.60 in 5.0 mi ESE 8.1 mph 18.4 mph N/A   Mostly Cloudy
8:11 AM 60.8 °F 60.8 °F 100% 29.69 in 7.0 mi ESE 8.1 mph - N/A   Overcast
8:53 AM 64.0 °F 60.1 °F 87% 29.60 in 10.0 mi ESE 11.5 mph - N/A   Partly Cloudy
9:11 AM 64.0 °F 60.1 °F 87% 29.69 in 10.0 mi ESE 10.4 mph - N/A   Mostly Cloudy
9:36 AM 66.9 °F 59.0 °F 76% 29.68 in 10.0 mi SE 6.9 mph - N/A   Scattered Clouds
9:53 AM 68.0 °F 57.9 °F 70% 29.59 in 10.0 mi SE 11.5 mph - N/A   Partly Cloudy
10:53 AM 71.1 °F 55.0 °F 57% 29.56 in 10.0 mi SE 5.8 mph - N/A   Clear
11:53 AM 75.9 °F 54.0 °F 46% 29.53 in 10.0 mi South 5.8 mph - N/A   Clear
12:53 PM 84.9 °F 46.9 °F 27% 29.50 in 10.0 mi South 16.1 mph 20.7 mph N/A   Clear
1:53 PM 87.1 °F 42.1 °F 21% 29.46 in 10.0 mi SW 13.8 mph 24.2 mph N/A   Clear
2:53 PM 89.1 °F 39.9 °F 18% 29.44 in 10.0 mi SSW 15.0 mph - N/A   Clear
3:53 PM 90.0 °F 36.0 °F 15% 29.43 in 10.0 mi South 13.8 mph - N/A   Clear
4:53 PM 89.1 °F 37.0 °F 16% 29.43 in 10.0 mi South 11.5 mph - N/A   Clear
5:53 PM 84.9 °F 41.0 °F 21% 29.43 in 10.0 mi SE 6.9 mph - N/A   Clear
6:53 PM 71.1 °F 46.9 °F 42% 29.45 in 10.0 mi East 8.1 mph - N/A   Clear
7:53 PM 69.1 °F 43.0 °F 39% 29.44 in 10.0 mi East 10.4 mph - N/A   Clear
8:53 PM 68.0 °F 41.0 °F 37% 29.44 in 10.0 mi SE 9.2 mph - N/A   Clear
9:53 PM 64.9 °F 41.0 °F 42% 29.45 in 10.0 mi Calm Calm - N/A   Clear
10:43 PM 64.0 °F 54.0 °F 70% 29.58 in 10.0 mi West 10.4 mph 21.9 mph N/A   Clear
10:53 PM 62.1 °F 53.1 °F 72% 29.47 in 10.0 mi WNW 11.5 mph - N/A   Clear
11:53 PM 62.1 °F 50.0 °F 65% 29.55 in 10.0 mi NW 12.7 mph - N/A   Clear